CAPE
79 4 585 622 0 0 0 0 0 0 0 0 0 0 0 0 0 0 15 58 4 0 721 820 1151 1113 1092 1007 970 933 865 762 631 539 238 4 5 4 1 0 152 6 2 45 25 56 19 1 1
10 54 135 243 0 0 0 0 0 0 0 0 0 0 0 2 80 132 95 72 33 1 445 1222 1188 961 1049 1009 1040 886 813 753 515 118 4 6 3 2 0 0 165 52 29 28 4 56 2 0 0
0 111 287 86 0 0 0 0 0 0 0 2 0 10 25 52 173 165 72 195 181 65 920 1122 1097 975 1040 969 908 786 677 417 70 4 4 3 3 1 1 25 137 100 17 4 34 20 1 0 0
0 139 179 32 0 2 0 0 0 0 5 20 3 0 31 62 176 168 190 331 236 614 983 1225 924 907 986 809 881 644 89 2 4 1 2 5 4 6 7 279 160 119 26 8 103 29 1 0 0
0 187 14 20 20 105 141 120 55 32 36 49 23 4 17 52 165 299 405 436 332 869 907 929 912 1040 873 575 112 123 98 3 1 2 7 8 6 20 2 137 170 118 22 7 54 20 1 0 0
0 120 16 0 46 227 291 241 122 129 150 83 35 28 46 23 333 554 627 416 819 814 895 864 615 537 589 300 61 22 4 3 3 3 15 19 50 94 50 58 14 8 7 1 1 10 0 0 0
0 20 0 14 67 277 395 443 288 113 123 128 52 23 10 142 289 653 626 476 798 868 599 432 236 153 123 28 5 3 3 1 54 179 100 49 15 12 4 7 7 4 0 0 1 2 0 0 0
0 0 0 0 0 91 330 221 398 67 43 222 113 54 45 186 174 465 549 470 515 537 402 114 79 15 0 0 2 1 1 46 332 247 47 20 7 9 4 1 0 0 0 0 0 0 0 0 0
1 0 0 0 24 117 93 79 83 6 0 65 195 84 98 173 130 382 391 470 409 367 292 66 0 0 0 0 1 17 191 242 121 37 12 7 0 0 0 0 0 0 0 0 0 0 0 0 0
0 0 0 0 20 6 11 0 0 0 0 0 41 139 255 266 283 269 220 243 361 305 155 7 0 1 3 53 223 307 443 191 9 0 0 0 0 0 0 0 0 0 0 0 0 0 0 0 0
0 0 0 0 0 0 0 0 0 0 0 0 0 117 337 445 407 319 225 236 147 129 138 7 0 11 41 224 366 339 95 0 0 0 0 0 0 0 0 0 0 0 0 0 0 0 0 0 0
0 0 0 0 0 0 0 0 0 0 0 0 0 7 323 459 569 534 361 269 142 71 87 38 12 29 185 373 314 127 6 0 0 0 0 0 0 0 0 0 0 0 0 0 0 0 0 0 0
0 0 0 0 0 0 0 0 0 0 0 0 0 2 183 493 579 590 463 323 179 182 94 62 23 49 303 492 196 84 12 0 0 0 0 0 0 0 0 0 0 0 0 0 0 0 0 0 0
0 0 0 0 0 0 0 0 0 0 0 0 0 0 281 528 662 675 559 426 262 210 144 76 7 41 395 610 208 47 0 0 0 0 0 0 0 0 0 0 0 0 0 0 0 0 0 0 0
0 0 0 0 0 0 0 0 0 0 0 0 0 34 441 404 628 676 611 480 313 300 217 109 23 68 433 539 215 17 0 0 0 0 0 0 0 0 0 0 0 0 0 0 0 0 0 0 0
0 0 0 0 0 0 0 0 0 0 0 0 0 0 236 451 476 598 579 473 231 239 179 81 19 57 336 495 195 7 0 0 0 0 0 0 0 0 0 0 0 0 0 0 0 0 0 0 0
0 0 0 0 0 0 0 0 0 0 0 0 0 0 0 239 587 412 400 514 202 100 22 13 0 26 172 418 228 11 0 0 0 0 0 0 0 0 0 0 0 0 0 0 0 0 0 0 0
0 0 0 0 0 0 0 0 0 0 0 0 0 0 0 0 10 553 402 318 214 57 15 3 1 44 165 247 40 0 0 0 0 0 0 0 0 0 0 0 0 0 0 0 0 0 0 0 0
0 0 0 0 0 0 0 0 0 0 0 0 0 0 0 0 0 207 589 321 225 42 17 1 0 79 131 82 37 0 0 0 0 0 0 0 0 0 0 0 0 0 0 0 0 0 0 0 0
0 0 0 0 0 0 0 0 0 0 0 0 0 0 0 0 0 0 445 478 255 56 23 13 5 87 83 91 26 0 0 0 0 0 0 0 0 0 0 0 0 0 0 0 0 0 0 0 0
0 0 0 0 0 0 1 0 0 0 0 0 0 0 0 0 0 0 11 467 352 156 30 26 34 45 50 40 0 0 0 0 0 0 0 0 0 0 0 0 0 0 0 0 0 0 0 0 0
0 0 0 0 0 0 1 0 0 0 0 0 0 0 0 0 0 0 0 104 362 265 67 41 57 29 16 0 0 0 0 0 0 0 0 0 0 0 0 0 0 0 0 0 0 0 0 0 0
0 0 0 0 0 0 0 0 0 0 0 0 0 0 0 0 0 0 0 10 207 258 212 128 98 42 1 0 0 0 0 0 0 0 0 0 0 0 0 0 0 0 0 0 0 0 0 0 0
0 0 0 0 0 0 1 0 0 0 0 5 16 0 28 21 81 191 210 426 377 289 249 136 57 20 2 4 1 0 0 1 0 0 2 0 0 0 0 0 0 0 0 0 0 0 0 0 0
0 0 0 0 0 0 0 0 0 4 8 100 92 64 146 462 693 759 619 616 525 487 386 133 5 2 3 3 2 2 0 1 1 0 0 0 0 0 0 0 0 0 0 0 0 0 0 0 0
0 0 0 0 0 0 0 0 0 0 1 5 115 43 122 256 302 426 626 607 477 648 340 84 11 2 3 1 0 0 1 16 1 0 0 1 0 0 0 0 0 0 0 0 0 0 0 0 0
0 0 0 0 0 0 0 0 10 0 0 0 21 5 48 13 7 52 141 333 675 386 163 50 8 1 0 1 1 0 11 0 0 0 2 1 0 0 0 0 0 0 0 0 0 0 0 0 0
0 0 0 0 0 0 0 0 0 0 0 0 0 0 0 0 0 0 0 2 104 157 103 29 9 1 2 10 0 0 0 0 0 0 0 0 0 0 0 0 0 0 0 0 0 0 0 0 0
0 0 0 0 0 0 0 0 0 0 0 0 0 0 0 0 0 0 0 0 0 0 0 1 0 0 0 0 0 0 0 0 0 0 0 0 0 0 0 0 0 0 0 0 0 0 0 0 0
0 0 0 0 0 0 0 0 0 0 0 0 0 0 0 0 0 0 0 0 0 0 0 0 0 0 0 0 0 0 0 0 0 0 0 0 0 0 0 0 0 0 0 0 0 0 0 0 0
CIN
-232 -356 -115 -64 0 0 0 0 0 0 0 0 0 0 0 0 0 0 -386 -465 -428 0 -78 -24 0 0 0 0 0 0 0 0 0 0 -3 -1 0 0 0 0 -39 0 0 -72 0 -8 0 0 0
-288 -223 -146 -49 0 0 0 0 0 0 0 0 0 0 0 -33 -351 -397 -413 -421 -464 -92 -151 -8 -2 -6 0 0 0 0 0 0 0 -43 0 0 0 0 0 0 -43 -7 0 0 0 -11 0 0 0
0 -157 -44 -39 0 0 0 0 0 0 0 -77 0 -207 -211 -196 -347 -369 -433 -298 -284 -341 -75 -22 -4 -4 0 0 0 0 0 0 -70 0 0 0 0 0 0 -10 -71 -81 0 0 0 0 0 0 0
0 -74 -49 -6 0 -53 0 0 0 0 -78 -103 -147 -3 -291 -415 -313 -353 -299 -210 -226 -99 -54 -19 -16 -5 0 0 0 -1 -71 0 0 0 0 0 0 0 0 -21 -50 -85 -15 0 -39 0 0 0 0
0 -44 -61 -40 -130 -142 -140 -110 -95 -95 -77 -80 -121 -65 -110 -359 -358 -304 -241 -164 -172 -50 -48 -37 -20 -1 0 -1 -78 -53 -58 0 0 0 0 0 0 -30 0 -65 -66 -77 -24 0 0 0 0 0 0
0 -51 -20 0 -129 -47 -82 -72 -56 -57 -76 -76 -82 -109 -227 -396 -287 -210 -185 -191 -70 -56 -44 -33 -35 -37 -14 -28 -141 -188 0 0 0 -1 -1 -1 -69 -97 -1 -1 -1 0 0 0 0 0 0 0 0
0 -71 0 -41 -79 -22 -23 -41 -37 -68 -81 -67 -154 -92 -250 -324 -271 -180 -172 -175 -96 -63 -79 -75 -108 -134 -140 -193 -55 0 0 0 -48 -14 -45 -99 -31 -1 -1 0 0 0 0 0 -1 0 0 0 0
0 0 0 0 -5 -83 -31 -43 -41 -59 -41 -110 -116 -72 -126 -306 -324 -186 -179 -153 -135 -112 -117 -165 -182 -223 0 0 0 0 -6 -51 -1 -2 -58 -3 -2 0 0 0 0 0 0 0 0 0 0 0 0
-75 0 0 0 -64 -42 -69 -105 -137 -236 0 -113 -112 -114 -206 -297 -320 -196 -183 -136 -143 -128 -133 -197 0 0 0 0 -16 -50 -1 -1 -6 -32 -2 -7 0 0 0 0 0 0 0 0 0 0 0 0 0
0 0 0 0 -47 -24 -31 0 0 0 0 0 -118 -155 -229 -247 -261 -232 -227 -220 -163 -153 -167 -103 0 -198 -279 -141 -35 -4 -1 -7 -12 0 0 0 0 0 0 0 0 0 0 0 0 0 0 0 0
0 0 0 0 0 0 0 0 0 0 0 0 0 -84 -181 -194 -172 -230 -225 -251 -286 -250 -196 -291 -79 -286 -157 -46 -5 -5 -45 0 0 0 0 0 0 0 0 0 0 0 0 0 0 0 0 0 0
0 0 0 0 0 0 0 0 0 0 0 0 0 -57 -131 -191 -167 -222 -198 -223 -305 -357 -280 -334 -335 -217 -86 -24 -13 -33 -113 0 0 0 0 0 0 0 0 0 0 0 0 0 0 0 0 0 0
0 0 0 0 0 0 0 0 0 0 0 0 0 -65 -152 -175 -189 -184 -158 -182 -261 -308 -318 -364 -360 -238 -44 -9 -43 -56 -114 0 0 0 0 0 0 0 0 0 0 0 0 0 0 0 0 0 0
0 0 0 0 0 0 0 0 0 0 0 0 0 0 -136 -174 -194 -168 -168 -204 -233 -274 -346 -378 -381 -264 -31 -1 -22 -99 0 0 0 0 0 0 0 0 0 0 0 0 0 0 0 0 0 0 0
0 0 0 0 0 0 0 0 0 0 0 0 0 -56 -86 -151 -163 -199 -215 -204 -240 -287 -303 -419 -418 -227 -29 -3 -32 -108 0 0 0 0 0 0 0 0 0 0 0 0 0 0 0 0 0 0 0
0 0 0 0 0 0 0 0 0 0 0 0 0 0 -113 -97 -158 -191 -201 -185 -257 -266 -281 -374 -420 -262 -69 -14 -62 -44 0 0 0 0 0 0 0 0 0 0 0 0 0 0 0 0 0 0 0
0 0 0 0 0 0 0 0 0 0 0 0 0 0 0 -98 -102 -167 -176 -146 -259 -286 -291 -316 0 -310 -147 -53 -56 -134 0 0 0 0 0 0 0 0 0 0 0 0 0 0 0 0 0 0 0
0 0 0 0 0 0 0 0 0 0 0 0 0 0 0 0 -97 -131 -182 -151 -218 -286 -356 -328 -154 -258 -100 -69 -145 0 0 0 0 0 0 0 0 0 0 0 0 0 0 0 0 0 0 0 0
0 0 0 0 0 0 0 0 0 0 0 0 0 0 0 0 0 -180 -154 -177 -200 -267 -305 -291 0 -162 -89 -132 -147 0 0 0 0 0 0 0 0 0 0 0 0 0 0 0 0 0 0 0 0
0 0 0 0 0 0 0 0 0 0 0 0 0 0 0 0 0 0 -170 -149 -184 -264 -282 -240 -188 -75 -96 -77 -119 0 0 0 0 0 0 0 0 0 0 0 0 0 0 0 0 0 0 0 0
0 0 0 0 0 0 -7 0 0 0 0 0 0 0 0 0 0 0 -74 -152 -187 -213 -277 -241 -159 -75 -103 -81 0 0 0 0 0 0 0 0 0 0 0 0 0 0 0 0 0 0 0 0 0
0 0 0 0 0 0 -13 0 0 0 0 0 0 0 0 0 0 0 0 -228 -199 -244 -294 -248 -155 -89 -195 0 0 0 0 0 0 0 0 0 0 0 0 0 0 0 0 0 0 0 0 0 0
0 0 0 0 0 0 -2 0 0 0 0 0 0 0 0 0 0 0 0 -268 -242 -278 -287 -291 -206 -195 -54 0 0 0 0 0 0 0 0 0 0 0 0 0 0 0 0 0 0 0 0 0 0
0 0 0 0 0 0 -1 0 0 0 -1 -90 -132 0 -232 -322 -88 -214 -249 -230 -238 -230 -208 -211 -228 -231 0 0 0 0 0 0 0 0 0 0 0 0 0 0 0 0 0 0 0 0 0 0 0
0 0 0 0 0 0 0 0 0 0 -1 -3 -72 -112 -160 -170 -150 -151 -186 -200 -211 -189 -180 -206 -140 0 0 0 0 0 -1 -33 -21 -10 0 0 0 0 0 0 0 0 0 0 0 0 0 0 0
0 0 0 0 0 0 0 0 0 0 -1 -1 -25 -115 -168 -212 -214 -144 -107 -116 -132 -101 -145 -171 -185 0 0 0 0 0 0 -52 -53 0 0 0 0 0 0 0 0 0 0 0 0 0 0 0 0
0 0 0 0 0 0 0 0 -6 -2 0 0 -39 -61 -188 -270 -248 -202 -206 -128 -64 -92 -111 -111 -88 0 0 0 0 0 -63 0 0 0 0 0 0 0 0 0 0 0 0 0 0 0 0 0 0
0 0 0 0 0 0 0 0 0 0 0 0 0 0 0 0 0 0 0 -188 -167 -117 -122 -136 -145 0 0 -8 0 0 0 0 0 0 0 0 0 0 0 0 0 0 0 0 0 0 0 0 0
0 0 0 0 0 0 0 0 0 0 -2 0 0 0 0 0 0 0 0 0 0 0 0 0 0 0 0 0 0 0 0 0 0 0 0 0 0 0 0 0 0 0 0 0 0 0 0 0 0
0 0 0 0 0 0 0 0 0 0 0 -1 0 0 0 0 0 0 0 0 0 0 0 0 0 0 0 0 0 0 0 0 0 0 0 0 0 0 0 0 0 0 0 0 0 0 0 0 0
Wind_Speed
20 18 16 17 19 19 20 19 18 20 23 21 20 14 13 20 17 19 11 6 9 13 11 12 12 13 13 14 14 15 16 16 16 16 16 16 16 17 17 17 17 18 19 19 20 20 21 22 22
18 16 17 17 22 25 23 19 21 20 24 22 19 17 18 19 17 14 7 5 10 11 11 9 12 12 12 13 13 14 15 15 16 15 14 15 15 16 16 16 17 18 18 19 19 20 21 22 22
16 15 18 22 25 25 22 18 20 20 24 23 21 18 18 19 18 7 13 5 6 7 8 10 11 10 11 12 13 14 15 15 14 14 14 14 14 15 16 16 17 17 17 18 18 19 20 21 21
13 16 20 28 31 24 24 25 21 28 25 20 21 21 18 20 14 12 4 4 4 4 7 10 10 10 10 10 12 12 12 12 12 13 14 14 15 14 15 16 16 17 17 18 18 18 19 20 21
15 18 28 32 35 29 27 27 29 32 27 23 22 23 19 18 12 6 4 3 5 5 7 8 8 7 8 9 9 10 11 12 13 13 14 15 15 15 15 16 16 16 17 17 17 18 19 19 19
18 20 31 37 36 30 27 27 28 30 25 23 21 21 20 16 8 4 3 3 3 5 4 3 4 4 6 7 8 9 10 12 13 14 14 15 15 15 14 14 15 15 16 16 16 17 18 19 19
20 24 33 35 35 30 25 23 25 25 27 25 23 23 20 14 8 4 2 1 1 1 2 1 1 3 5 7 9 10 12 12 14 14 15 15 15 15 15 15 15 15 16 16 16 17 18 18 19
18 22 31 32 35 36 29 25 24 24 24 21 20 23 23 16 7 3 1 2 1 2 1 1 0 2 4 7 9 11 13 13 14 13 13 13 13 14 14 15 15 16 16 16 17 17 18 18 19
17 25 31 32 32 31 25 26 24 25 28 25 21 24 21 7 5 5 5 4 4 3 2 2 1 1 3 6 9 11 12 12 12 11 12 11 12 12 13 14 15 16 16 17 17 17 18 19 19
17 23 28 25 27 34 34 33 30 32 33 31 28 22 13 6 6 8 8 8 6 5 5 5 5 3 1 3 7 9 9 9 8 9 9 10 11 12 12 13 14 15 16 16 17 17 17 18 18
18 23 24 28 30 32 34 37 33 33 37 34 32 23 16 12 10 8 10 6 7 6 6 8 7 5 2 0 3 5 6 8 8 9 10 10 11 11 12 12 12 13 14 15 15 16 17 18 18
20 16 16 22 24 29 34 35 36 34 36 33 33 24 19 15 14 12 11 8 6 7 9 8 9 8 5 1 3 3 6 6 7 8 9 10 10 10 10 11 11 12 13 14 14 15 15 16 17
18 20 19 22 29 31 31 34 36 36 32 35 33 27 21 18 15 14 12 12 9 8 8 9 9 8 8 4 2 5 5 6 8 10 10 9 9 9 10 10 10 11 12 12 13 14 14 14 15
22 25 28 26 23 26 28 31 28 29 28 31 32 29 22 18 17 16 14 13 15 10 10 8 10 12 11 6 5 3 4 5 6 7 8 8 9 9 8 8 9 10 10 10 11 12 12 12 12
23 26 26 21 27 27 23 29 25 26 26 31 31 28 26 23 19 18 15 13 15 10 9 11 13 15 14 10 7 5 3 3 5 6 6 8 7 8 8 8 8 7 8 9 9 10 10 11 11
24 20 30 29 28 22 25 34 31 27 28 31 30 29 27 27 24 21 20 17 15 11 11 11 11 17 15 11 9 7 5 4 4 4 4 6 7 8 7 7 6 7 7 7 7 8 8 10 11
10 1 17 27 21 23 20 34 29 33 36 34 33 31 28 29 28 24 24 20 17 15 10 14 12 14 13 14 12 9 6 5 4 2 4 6 5 5 5 7 7 6 5 5 6 7 8 9 10
8 4 8 5 7 6 32 38 38 36 35 35 36 34 32 31 32 29 25 25 19 12 11 14 17 16 16 17 14 12 10 7 6 5 5 5 5 6 4 3 4 5 3 3 5 6 8 9 10
9 9 6 6 5 6 7 14 39 38 36 34 34 35 35 33 32 30 26 25 25 20 17 15 14 16 18 17 16 15 12 11 8 6 6 5 3 3 3 3 2 2 1 2 4 7 8 11 11
13 13 13 13 15 15 12 10 11 36 37 35 35 34 35 34 32 30 24 23 22 21 19 19 17 17 15 13 23 23 20 16 11 8 7 8 5 4 3 3 3 1 4 5 5 7 10 14 11
23 18 18 14 18 17 27 16 21 21 28 29 28 31 33 34 35 33 28 22 20 19 19 16 18 16 10 17 17 14 16 14 12 12 13 12 11 8 4 4 5 3 4 6 7 8 10 12 14
25 25 16 21 30 26 29 22 20 28 26 26 31 33 35 35 34 34 30 24 20 19 19 18 16 19 16 11 13 17 16 15 15 13 13 12 12 12 9 8 4 3 4 5 6 8 10 12 14
21 8 19 24 30 25 28 22 18 22 28 31 33 32 34 35 34 32 27 21 21 20 17 16 16 18 15 13 14 14 15 15 16 17 13 13 12 8 3 4 3 2 5 5 6 7 9 12 13
17 25 19 24 30 35 28 24 19 22 6 14 30 28 29 30 27 26 24 21 19 19 17 17 13 14 14 12 15 17 15 15 16 16 13 11 3 3 17 7 5 2 1 4 7 10 11 13 16
31 32 28 28 31 32 31 25 15 11 5 21 19 19 18 18 17 17 19 18 16 15 15 15 15 15 13 13 13 16 19 12 12 7 10 8 4 2 4 2 2 1 5 7 8 10 12 14 17
25 27 27 27 28 26 25 30 20 10 8 9 15 12 10 10 10 11 13 13 13 13 12 13 12 12 12 12 6 10 7 10 8 11 9 1 2 4 4 1 3 5 8 9 10 12 15 16 17
22 25 22 22 21 24 24 24 26 21 7 8 10 8 7 7 8 9 10 12 11 11 10 9 10 11 9 8 12 5 7 8 12 13 11 2 4 5 3 2 4 7 8 9 11 14 15 17 19
24 22 24 25 28 25 24 28 25 23 6 6 8 8 7 7 8 10 9 9 8 8 7 7 9 11 9 9 11 8 9 8 6 7 7 7 6 4 2 2 6 8 9 10 12 14 16 19 20
21 23 23 21 22 23 22 26 20 22 22 12 5 7 7 9 10 9 9 9 8 9 9 8 10 11 9 14 12 11 12 13 12 11 9 8 7 6 5 6 7 9 11 13 14 16 18 19 21
18 21 22 22 20 19 20 19 18 23 24 23 5 7 10 10 10 11 11 10 11 11 11 11 12 11 12 14 15 16 16 15 14 13 12 11 10 10 9 10 11 11 12 14 17 19 19 22 24
Wind_Direction
309 313 315 309 303 303 295 298 301 303 300 298 302 299 301 301 314 308 331 0 96 108 109 110 106 101 97 93 88 85 85 80 75 69 58 52 47 46 47 49 48 48 44 37 33 37 33 29 25
310 310 309 306 289 287 292 299 288 300 300 295 299 295 295 296 313 323 353 14 106 108 107 104 108 103 95 90 86 87 85 79 75 61 52 46 47 48 49 51 52 53 44 36 31 38 35 31 28
312 309 297 291 285 281 289 297 296 297 305 298 293 298 298 297 312 340 314 80 96 105 106 108 107 100 92 90 87 86 84 80 65 63 56 50 44 49 54 52 54 50 41 32 32 38 32 28 28
310 304 296 278 277 287 284 287 296 292 302 303 298 289 300 302 315 323 35 77 90 95 110 113 108 99 92 86 83 84 77 72 67 65 67 57 55 49 51 48 52 48 43 35 44 39 31 28 28
307 297 280 278 276 281 284 285 288 286 292 296 296 286 293 303 326 9 67 70 101 107 111 110 105 91 92 85 78 77 75 77 77 73 73 69 63 58 55 47 46 45 43 38 40 36 32 28 24
293 292 279 274 276 281 286 286 288 285 291 289 293 289 288 302 335 360 41 80 102 114 119 110 102 87 80 79 80 82 81 86 86 84 77 73 65 56 48 38 37 43 45 40 38 37 35 29 26
292 286 278 278 277 283 287 290 285 287 288 286 286 286 291 294 304 326 342 75 117 135 143 215 68 80 81 82 89 92 94 92 94 91 81 74 68 62 60 53 47 44 45 44 45 42 37 32 30
302 293 284 281 277 278 284 286 287 286 285 295 294 276 282 288 290 273 338 285 259 242 197 215 278 56 76 87 97 100 103 100 91 83 73 68 62 60 57 55 56 58 54 50 51 46 39 37 37
311 293 286 283 282 282 286 284 284 288 282 288 289 287 294 278 268 261 256 262 257 251 215 232 249 282 91 92 99 104 107 101 91 76 74 60 53 54 59 60 60 62 55 56 59 52 47 46 46
315 300 293 295 292 283 281 279 281 280 278 277 283 292 286 281 253 257 249 243 226 222 233 244 249 244 144 88 97 100 95 91 78 70 64 63 58 60 56 61 63 61 57 61 60 54 50 48 44
334 310 307 300 295 290 283 276 280 277 272 273 275 284 278 268 258 255 250 220 187 198 231 246 244 236 200 230 98 95 86 91 78 76 78 70 67 62 58 53 54 54 57 57 59 58 54 51 49
335 336 330 317 307 297 285 282 275 274 274 275 276 282 273 261 247 240 242 225 196 197 231 236 240 240 241 223 127 114 107 95 88 80 79 74 68 64 61 58 58 62 63 63 62 58 55 51 46
346 339 334 323 306 296 292 284 278 272 277 274 275 277 269 258 251 249 239 243 240 191 217 231 227 227 245 234 187 130 119 106 102 99 90 77 77 74 67 62 61 66 70 68 65 60 54 49 42
345 331 321 322 322 311 297 289 287 282 280 280 273 270 267 256 249 248 237 232 241 221 212 211 219 229 240 234 213 175 134 116 107 104 92 83 92 85 67 70 71 67 65 63 65 62 52 40 34
343 332 331 328 322 314 312 293 291 290 287 278 277 272 266 261 252 240 233 225 227 196 197 219 228 232 237 238 223 217 178 148 129 118 94 95 94 92 87 84 78 68 67 65 56 45 38 27 17
344 349 327 323 315 322 315 287 287 291 290 281 277 276 268 261 257 253 246 246 235 231 216 223 213 234 234 235 234 227 200 178 155 133 113 106 105 105 98 93 82 79 76 69 57 48 25 13 359
76 347 326 336 338 324 325 294 294 289 283 279 276 274 272 264 260 257 253 250 243 251 221 208 210 225 225 238 243 233 208 201 193 200 152 130 115 108 107 108 101 91 73 57 56 27 18 10 357
29 346 25 277 28 334 290 293 288 287 283 277 274 272 270 268 260 257 254 251 249 247 233 239 235 236 236 244 246 249 243 235 227 198 178 159 136 126 117 109 104 100 75 30 20 10 351 354 354
35 22 341 303 276 345 304 251 291 286 282 279 275 270 268 267 265 260 254 251 243 247 244 236 230 236 238 245 246 251 239 249 244 219 214 227 204 180 157 130 135 116 93 343 1 342 341 335 339
27 16 16 18 6 350 337 315 257 293 282 276 273 271 267 266 265 261 254 245 237 238 244 242 231 235 232 244 259 259 255 262 260 253 248 253 237 206 213 162 163 239 291 309 327 329 328 326 338
25 32 26 8 18 24 0 4 348 343 299 286 280 272 269 265 262 261 255 245 237 223 230 227 225 214 242 261 258 258 259 264 260 260 263 271 270 258 251 249 264 271 295 301 312 321 324 327 328
22 22 27 31 25 29 19 18 26 4 313 291 283 275 266 262 262 261 256 249 239 225 234 234 229 227 266 246 242 247 253 240 261 257 262 269 272 268 270 265 263 274 300 312 318 325 329 330 325
28 348 44 40 30 38 31 31 36 27 321 295 285 280 268 258 257 258 256 251 244 244 237 229 233 233 249 252 240 241 255 256 268 268 267 272 261 256 242 246 237 259 311 316 319 324 328 330 327
31 28 41 39 34 32 37 41 44 34 313 263 295 281 268 255 257 256 254 253 252 249 248 247 237 242 253 250 262 261 255 271 272 283 275 273 164 203 263 148 155 160 326 321 318 320 323 323 322
29 34 24 24 28 32 37 46 49 21 13 35 283 282 269 256 262 260 252 254 255 251 253 258 263 266 270 276 271 273 283 292 307 292 267 283 289 183 153 176 184 223 314 316 318 319 319 319 319
42 44 45 35 34 37 48 39 40 31 303 299 311 286 274 273 274 278 262 262 259 257 262 270 278 286 284 290 292 276 282 306 323 281 298 142 272 165 132 339 289 309 318 320 322 323 322 323 323
48 46 54 53 51 46 49 52 56 44 75 307 316 308 303 292 288 300 289 272 268 264 272 283 292 301 303 303 312 331 312 292 302 305 320 302 128 133 143 241 303 323 327 325 321 320 323 323 323
53 57 50 50 42 48 50 52 48 48 61 312 311 321 305 311 322 325 312 301 303 301 315 319 323 322 317 70 332 335 341 343 55 92 90 90 92 68 63 5 333 333 332 329 325 322 323 321 322
53 52 52 56 57 52 49 52 56 58 65 106 272 305 303 322 331 333 347 333 335 338 327 335 334 349 334 323 346 360 38 71 67 55 54 49 49 46 24 359 347 339 335 330 325 324 323 321 320
61 54 55 55 52 59 61 63 66 67 73 88 185 296 317 325 328 350 359 351 349 360 0 358 5 6 4 19 32 42 51 51 49 44 39 37 36 26 15 1 348 341 334 328 324 322 321 320 319